TimePDT,TemperatureF,Dew PointF,Humidity,Sea Level PressureIn,VisibilityMPH,Wind Direction,Wind SpeedMPH,Gust SpeedMPH,PrecipitationIn,Events,Conditions,WindDirDegrees,DateUTC
12:15 AM,41.0,28.4,61,30.21,10.0,NNW,11.5,-,N/A,,Clear,330,2013-10-22 07:15:00
12:35 AM,39.2,28.4,65,30.21,10.0,NNW,9.2,-,N/A,,Clear,330,2013-10-22 07:35:00
12:55 AM,39.2,28.4,65,30.21,10.0,NNW,9.2,-,N/A,,Clear,340,2013-10-22 07:55:00
1:15 AM,35.6,26.6,70,30.21,10.0,North,8.1,-,N/A,,Clear,360,2013-10-22 08:15:00
1:35 AM,33.8,26.6,75,30.21,10.0,North,6.9,-,N/A,,Clear,10,2013-10-22 08:35:00
1:55 AM,33.8,26.6,75,30.22,10.0,North,8.1,-,N/A,,Clear,360,2013-10-22 08:55:00
2:15 AM,33.8,26.6,75,30.21,10.0,NNW,9.2,-,N/A,,Clear,340,2013-10-22 09:15:00
2:35 AM,33.8,26.6,75,30.21,10.0,North,8.1,-,N/A,,Clear,350,2013-10-22 09:35:00
2:55 AM,33.8,26.6,75,30.21,10.0,NNW,8.1,-,N/A,,Clear,340,2013-10-22 09:55:00
3:15 AM,35.6,26.6,70,30.21,10.0,NNW,9.2,-,N/A,,Clear,340,2013-10-22 10:15:00
3:35 AM,33.8,26.6,75,30.20,10.0,North,5.8,-,N/A,,Clear,10,2013-10-22 10:35:00
3:55 AM,32.0,26.6,80,30.20,10.0,North,6.9,-,N/A,,Clear,350,2013-10-22 10:55:00
4:15 AM,33.8,26.6,75,30.20,10.0,NNW,8.1,-,N/A,,Clear,340,2013-10-22 11:15:00
4:35 AM,32.0,26.6,80,30.20,10.0,NNW,6.9,-,N/A,,Clear,340,2013-10-22 11:35:00
4:55 AM,33.8,26.6,75,30.20,10.0,North,8.1,-,N/A,,Clear,350,2013-10-22 11:55:00
5:15 AM,33.8,26.6,75,30.21,10.0,NNW,8.1,-,N/A,,Clear,340,2013-10-22 12:15:00
5:35 AM,33.8,26.6,75,30.21,10.0,NNW,5.8,-,N/A,,Clear,340,2013-10-22 12:35:00
5:55 AM,32.0,26.6,80,30.21,10.0,North,5.8,-,N/A,,Clear,360,2013-10-22 12:55:00
6:15 AM,30.2,24.8,80,30.21,10.0,North,5.8,-,N/A,,Clear,350,2013-10-22 13:15:00
6:35 AM,30.2,24.8,80,30.22,10.0,NNW,4.6,-,N/A,,Clear,340,2013-10-22 13:35:00
6:55 AM,28.4,23.0,80,30.22,10.0,NNW,3.5,-,N/A,,Clear,340,2013-10-22 13:55:00
7:15 AM,28.4,24.8,86,30.22,10.0,North,5.8,-,N/A,,Clear,350,2013-10-22 14:15:00
7:35 AM,26.6,23.0,86,30.22,10.0,North,8.1,-,N/A,,Clear,350,2013-10-22 14:35:00
7:55 AM,28.4,24.8,86,30.22,10.0,NNW,6.9,-,N/A,,Clear,330,2013-10-22 14:55:00
8:15 AM,32.0,26.6,80,30.22,10.0,NNW,4.6,-,N/A,,Clear,340,2013-10-22 15:15:00
8:35 AM,37.4,28.4,70,30.22,10.0,NNW,3.5,-,N/A,,Clear,340,2013-10-22 15:35:00
8:55 AM,42.8,30.2,61,30.23,10.0,North,4.6,-,N/A,,Clear,350,2013-10-22 15:55:00
9:15 AM,46.4,32.0,57,30.23,10.0,Calm,Calm,-,N/A,,Clear,0,2013-10-22 16:15:00
9:35 AM,51.8,32.0,47,30.23,10.0,Calm,Calm,-,N/A,,Clear,0,2013-10-22 16:35:00
9:55 AM,51.8,33.8,50,30.23,10.0,East,3.5,-,N/A,,Clear,100,2013-10-22 16:55:00
10:15 AM,51.8,30.2,44,30.23,10.0,Calm,Calm,-,N/A,,Clear,0,2013-10-22 17:15:00
10:35 AM,53.6,30.2,41,30.22,10.0,ESE,3.5,-,N/A,,Clear,120,2013-10-22 17:35:00
10:55 AM,55.4,30.2,38,30.22,10.0,Calm,Calm,-,N/A,,Clear,0,2013-10-22 17:55:00
11:15 AM,57.2,30.2,36,30.21,10.0,Calm,Calm,-,N/A,,Clear,0,2013-10-22 18:15:00
11:35 AM,60.8,30.2,31,30.21,10.0,Calm,Calm,-,N/A,,Clear,0,2013-10-22 18:35:00
11:55 AM,66.2,30.2,26,30.20,10.0,Calm,Calm,-,N/A,,Clear,0,2013-10-22 18:55:00
12:15 PM,64.4,30.2,28,30.20,10.0,Calm,Calm,-,N/A,,Clear,0,2013-10-22 19:15:00
12:35 PM,68.0,30.2,24,30.19,10.0,Calm,Calm,-,N/A,,Clear,0,2013-10-22 19:35:00
12:55 PM,69.8,26.6,20,30.19,10.0,South,4.6,-,N/A,,Clear,190,2013-10-22 19:55:00
1:15 PM,69.8,26.6,20,30.18,10.0,ESE,4.6,-,N/A,,Clear,120,2013-10-22 20:15:00
1:35 PM,71.6,26.6,19,30.17,10.0,SW,3.5,-,N/A,,Clear,220,2013-10-22 20:35:00
1:55 PM,71.6,26.6,19,30.16,10.0,SW,3.5,-,N/A,,Clear,230,2013-10-22 20:55:00
2:15 PM,71.6,26.6,19,30.16,10.0,SSW,5.8,-,N/A,,Clear,210,2013-10-22 21:15:00
2:35 PM,71.6,26.6,19,30.15,10.0,NW,4.6,-,N/A,,Clear,310,2013-10-22 21:35:00
2:55 PM,71.6,24.8,17,30.15,10.0,Calm,Calm,-,N/A,,Clear,0,2013-10-22 21:55:00
3:15 PM,71.6,23.0,16,30.15,10.0,Calm,Calm,-,N/A,,Clear,0,2013-10-22 22:15:00
3:35 PM,71.6,23.0,16,30.15,10.0,SW,4.6,-,N/A,,Clear,220,2013-10-22 22:35:00
3:55 PM,71.6,23.0,16,30.15,10.0,SSW,5.8,-,N/A,,Clear,200,2013-10-22 22:55:00
4:15 PM,71.6,21.2,15,30.14,10.0,West,3.5,-,N/A,,Clear,260,2013-10-22 23:15:00
4:35 PM,73.4,23.0,15,30.14,10.0,NW,4.6,-,N/A,,Clear,310,2013-10-22 23:35:00
4:55 PM,71.6,21.2,15,30.13,10.0,Calm,Calm,-,N/A,,Clear,0,2013-10-22 23:55:00
5:15 PM,71.6,21.2,15,30.13,10.0,Calm,Calm,-,N/A,,Clear,0,2013-10-23 00:15:00
5:35 PM,68.0,23.0,18,30.13,10.0,North,3.5,-,N/A,,Clear,10,2013-10-23 00:35:00
5:55 PM,64.4,24.8,22,30.13,10.0,North,4.6,-,N/A,,Clear,10,2013-10-23 00:55:00
6:15 PM,57.2,26.6,31,30.13,10.0,NNW,8.1,-,N/A,,Clear,340,2013-10-23 01:15:00
6:35 PM,50.0,26.6,40,30.13,10.0,North,10.4,-,N/A,,Clear,10,2013-10-23 01:35:00
6:55 PM,51.8,28.4,41,30.13,10.0,Calm,Calm,-,N/A,,Clear,0,2013-10-23 01:55:00
7:15 PM,48.2,28.4,46,30.14,10.0,NNW,6.9,-,N/A,,Clear,330,2013-10-23 02:15:00
7:35 PM,48.2,30.2,50,30.14,10.0,NW,8.1,-,N/A,,Clear,320,2013-10-23 02:35:00
7:55 PM,44.6,28.4,53,30.13,10.0,NW,9.2,-,N/A,,Clear,320,2013-10-23 02:55:00
8:15 PM,44.6,30.2,57,30.13,10.0,NNW,11.5,-,N/A,,Clear,330,2013-10-23 03:15:00
8:35 PM,44.6,28.4,53,30.14,10.0,NNW,10.4,-,N/A,,Clear,330,2013-10-23 03:35:00
8:55 PM,44.6,28.4,53,30.14,10.0,NW,6.9,-,N/A,,Clear,320,2013-10-23 03:55:00
9:15 PM,42.8,28.4,57,30.14,10.0,NNW,5.8,-,N/A,,Clear,340,2013-10-23 04:15:00
9:35 PM,39.2,28.4,65,30.15,10.0,NNW,6.9,-,N/A,,Clear,340,2013-10-23 04:35:00
9:55 PM,39.2,28.4,65,30.15,10.0,NNW,9.2,-,N/A,,Clear,330,2013-10-23 04:55:00
10:15 PM,39.2,28.4,65,30.15,10.0,NNW,9.2,-,N/A,,Clear,330,2013-10-23 05:15:00
10:35 PM,41.0,28.4,61,30.15,10.0,NNW,6.9,-,N/A,,Clear,330,2013-10-23 05:35:00
10:55 PM,42.8,28.4,57,30.14,10.0,NNW,10.4,-,N/A,,Clear,330,2013-10-23 05:55:00
11:15 PM,39.2,26.6,61,30.15,10.0,North,4.6,-,N/A,,Clear,10,2013-10-23 06:15:00
11:35 PM,39.2,28.4,65,30.15,10.0,North,4.6,-,N/A,,Clear,10,2013-10-23 06:35:00
11:55 PM,37.4,26.6,65,30.15,10.0,North,6.9,-,N/A,,Clear,360,2013-10-23 06:55:00